| time (UTC) | temp F | wind direction | speed MPH | gust MPH | rain 1hr in | rain 24hr in | rain mn in | humidity % | barometer mb |
| 20260508220056 | 61 | 212 | 3.0 | 5.0 | 0.00 | 0.00 | 0.00 | 66 | 1009.1 |
| 20260508214555 | 61 | 200 | 2.0 | 4.0 | 0.00 | 0.00 | 0.00 | 66 | 1009.0 |
| 20260508213113 | 61 | 241 | 0.0 | 4.0 | 0.00 | 0.00 | 0.00 | 66 | 1009.1 |
| 20260508211552 | 61 | 254 | 1.0 | 3.0 | 0.00 | 0.00 | 0.00 | 63 | 1009.3 |
| 20260508210051 | 62 | 250 | 1.0 | 5.0 | 0.00 | 0.00 | 0.00 | 62 | 1009.6 |
| 20260508204551 | 62 | 266 | 5.0 | 9.0 | 0.00 | 0.00 | 0.00 | 61 | 1009.7 |
| 20260508203102 | 62 | 211 | 4.0 | 11.0 | 0.00 | 0.00 | 0.00 | 60 | 1009.8 |
| 20260508201545 | 62 | 218 | 4.0 | 13.0 | 0.00 | 0.00 | 0.00 | 60 | 1010.2 |
| 20260508200051 | 62 | 227 | 8.0 | 17.0 | 0.00 | 0.00 | 0.00 | 58 | 1010.4 |
| 20260508194543 | 62 | 230 | 6.0 | 17.0 | 0.00 | 0.00 | 0.00 | 58 | 1010.5 |
| 20260508193115 | 62 | 201 | 5.0 | 22.0 | 0.00 | 0.00 | 0.00 | 58 | 1010.4 |
| 20260508191542 | 63 | 226 | 10.0 | 19.0 | 0.00 | 0.00 | 0.00 | 57 | 1010.4 |
| 20260508190040 | 63 | 176 | 10.0 | 17.0 | 0.00 | 0.00 | 0.00 | 58 | 1010.8 |
| 20260508184546 | 63 | 249 | 7.0 | 21.0 | 0.00 | 0.00 | 0.00 | 59 | 1010.9 |
| 20260508183041 | 64 | 202 | 11.0 | 17.0 | 0.00 | 0.00 | 0.00 | 56 | 1011.0 |
| 20260508181537 | 65 | 216 | 8.0 | 26.0 | 0.00 | 0.00 | 0.00 | 55 | 1011.0 |
| 20260508180034 | 65 | 243 | 14.0 | 23.0 | 0.00 | 0.00 | 0.00 | 56 | 1011.0 |
| 20260508174548 | 64 | 190 | 14.0 | 23.0 | 0.00 | 0.00 | 0.00 | 61 | 1011.2 |
| 20260508173030 | 63 | 241 | 10.0 | 23.0 | 0.00 | 0.00 | 0.00 | 59 | 1011.5 |
| 20260508171528 | 62 | 239 | 5.0 | 16.0 | 0.00 | 0.00 | 0.00 | 61 | 1011.8 |
| 20260508170022 | 61 | 178 | 4.0 | 13.0 | 0.00 | 0.00 | 0.00 | 63 | 1012.1 |
| 20260508164528 | 61 | 221 | 7.0 | 19.0 | 0.00 | 0.00 | 0.00 | 59 | 1012.4 |
| 20260508163023 | 62 | 160 | 8.0 | 19.0 | 0.00 | 0.00 | 0.00 | 57 | 1012.4 |
| 20260508161535 | 62 | 237 | 7.0 | 17.0 | 0.00 | 0.00 | 0.00 | 59 | 1012.8 |
| 20260508160017 | 61 | 274 | 6.0 | 14.0 | 0.00 | 0.00 | 0.00 | 60 | 1012.9 |
| 20260508154516 | 62 | 257 | 6.0 | 14.0 | 0.00 | 0.00 | 0.00 | 61 | 1012.9 |
| 20260508153012 | 61 | 227 | 8.0 | 13.0 | 0.00 | 0.00 | 0.00 | 63 | 1012.8 |
| 20260508151523 | 60 | 232 | 10.0 | 18.0 | 0.00 | 0.00 | 0.00 | 62 | 1012.7 |
| 20260508150012 | 59 | 205 | 9.0 | 21.0 | 0.00 | 0.00 | 0.00 | 65 | 1012.8 |
| 20260508144505 | 58 | 275 | 9.0 | 18.0 | 0.00 | 0.00 | 0.00 | 63 | 1013.2 |
| 20260508143001 | 57 | 228 | 7.0 | 14.0 | 0.00 | 0.00 | 0.00 | 64 | 1013.3 |
| 20260508141557 | 57 | 243 | 6.0 | 12.0 | 0.00 | 0.00 | 0.00 | 65 | 1013.4 |
| 20260508140056 | 56 | 247 | 8.0 | 14.0 | 0.00 | 0.00 | 0.00 | 65 | 1013.5 |
| 20260508134600 | 55 | 226 | 8.0 | 13.0 | 0.00 | 0.00 | 0.00 | 66 | 1013.5 |
| 20260508133102 | 53 | 212 | 6.0 | 9.0 | 0.00 | 0.00 | 0.00 | 69 | 1013.4 |
| 20260508131540 | 52 | 241 | 4.0 | 8.0 | 0.00 | 0.00 | 0.00 | 73 | 1013.7 |
| 20260508130036 | 50 | 253 | 3.0 | 8.0 | 0.00 | 0.00 | 0.00 | 74 | 1013.7 |
| 20260508124534 | 48 | 253 | 3.0 | 4.0 | 0.00 | 0.00 | 0.00 | 76 | 1013.9 |
| 20260508123031 | 48 | 257 | 1.0 | 4.0 | 0.00 | 0.00 | 0.00 | 78 | 1013.7 |
| 20260508121532 | 47 | 216 | 2.0 | 5.0 | 0.00 | 0.00 | 0.00 | 78 | 1013.8 |
| 20260508120027 | 47 | 203 | 1.0 | 4.0 | 0.00 | 0.00 | 0.00 | 80 | 1013.6 |
| 20260508114527 | 45 | 194 | 1.0 | 7.0 | 0.00 | 0.01 | 0.00 | 82 | 1013.6 |
| 20260508113028 | 45 | 199 | 4.0 | 5.0 | 0.00 | 0.01 | 0.00 | 80 | 1013.3 |
| 20260508111518 | 47 | 278 | 2.0 | 4.0 | 0.00 | 0.01 | 0.00 | 77 | 1013.3 |
| 20260508110018 | 47 | 215 | 1.0 | 4.0 | 0.00 | 0.01 | 0.00 | 76 | 1013.1 |
| 20260508104515 | 46 | 225 | 1.0 | 6.0 | 0.00 | 0.01 | 0.00 | 76 | 1012.9 |
| 20260508103014 | 46 | 183 | 3.0 | 6.0 | 0.00 | 0.01 | 0.00 | 77 | 1012.8 |
| 20260508101515 | 46 | 207 | 4.0 | 7.0 | 0.00 | 0.01 | 0.00 | 75 | 1012.8 |
| 20260508100012 | 48 | 237 | 2.0 | 5.0 | 0.00 | 0.01 | 0.00 | 73 | 1012.9 |
| 20260508094512 | 48 | 234 | 0.0 | 5.0 | 0.00 | 0.01 | 0.00 | 71 | 1012.9 |
| 20260508093011 | 49 | 226 | 1.0 | 6.0 | 0.00 | 0.01 | 0.00 | 71 | 1012.9 |
| 20260508091522 | 49 | 199 | 3.0 | 6.0 | 0.00 | 0.01 | 0.00 | 70 | 1012.9 |
| 20260508090014 | 48 | 249 | 3.0 | 7.0 | 0.00 | 0.01 | 0.00 | 70 | 1013.1 |
| 20260508084508 | 48 | 236 | 1.0 | 4.0 | 0.00 | 0.01 | 0.00 | 70 | 1013.2 |
| 20260508083016 | 48 | 205 | 3.0 | 6.0 | 0.00 | 0.01 | 0.00 | 71 | 1013.1 |
| 20260508081509 | 48 | 228 | 0.0 | 5.0 | 0.00 | 0.01 | 0.00 | 68 | 1013.2 |
| 20260508080006 | 48 | 260 | 0.0 | 6.0 | 0.00 | 0.01 | 0.00 | 69 | 1013.2 |
| 20260508074505 | 48 | 253 | 1.0 | 7.0 | 0.00 | 0.01 | 0.00 | 71 | 1013.1 |
| 20260508073001 | 47 | 214 | 2.0 | 7.0 | 0.00 | 0.01 | 0.00 | 72 | 1013.1 |
| 20260508071600 | 47 | 207 | 2.0 | 7.0 | 0.00 | 0.01 | 0.00 | 73 | 1013.2 |
| 20260508070101 | 47 | 229 | 2.0 | 6.0 | 0.00 | 0.01 | 0.00 | 72 | 1013.4 |
| 20260508064557 | 47 | 224 | 2.0 | 7.0 | 0.00 | 0.01 | 0.00 | 73 | 1013.4 |
| 20260508063138 | 47 | 220 | 2.0 | 6.0 | 0.00 | 0.01 | 0.00 | 73 | 1013.5 |
| 20260508061556 | 47 | 199 | 3.0 | 6.0 | 0.00 | 0.01 | 0.00 | 73 | 1013.5 |
| 20260508060057 | 47 | 211 | 3.0 | 5.0 | 0.00 | 0.01 | 0.00 | 73 | 1013.6 |
| 20260508054555 | 47 | 208 | 2.0 | 7.0 | 0.00 | 0.01 | 0.00 | 73 | 1013.5 |
| 20260508053100 | 47 | 229 | 2.0 | 4.0 | 0.00 | 0.01 | 0.00 | 74 | 1013.6 |
| 20260508051617 | 47 | 225 | 2.0 | 7.0 | 0.00 | 0.01 | 0.00 | 74 | 1013.7 |
| 20260508050055 | 47 | 212 | 1.0 | 6.0 | 0.00 | 0.01 | 0.00 | 74 | 1013.7 |
| 20260508044550 | 47 | 222 | 4.0 | 8.0 | 0.00 | 0.01 | 0.00 | 75 | 1013.7 |
| 20260508043048 | 46 | 197 | 4.0 | 7.0 | 0.00 | 0.01 | 0.00 | 78 | 1013.6 |
| 20260508041546 | 46 | 205 | 2.0 | 6.0 | 0.00 | 0.01 | 0.00 | 77 | 1013.6 |
| 20260508040042 | 47 | 190 | 3.0 | 7.0 | 0.00 | 0.01 | 0.00 | 77 | 1013.5 |
| 20260508034542 | 46 | 209 | 2.0 | 6.0 | 0.00 | 0.01 | 0.01 | 78 | 1013.5 |
| 20260508033048 | 46 | 212 | 3.0 | 6.0 | 0.00 | 0.01 | 0.01 | 80 | 1013.5 |
| 20260508031541 | 45 | 197 | 1.0 | 7.0 | 0.00 | 0.01 | 0.01 | 81 | 1013.6 |
| 20260508030045 | 45 | 177 | 2.0 | 4.0 | 0.00 | 0.01 | 0.01 | 80 | 1013.4 |
| 20260508024540 | 46 | 195 | 0.0 | 1.0 | 0.00 | 0.01 | 0.01 | 80 | 1013.5 |
| 20260508023040 | 46 | 195 | 0.0 | 4.0 | 0.00 | 0.01 | 0.01 | 78 | 1013.5 |
| 20260508021548 | 47 | 245 | 1.0 | 4.0 | 0.00 | 0.01 | 0.01 | 76 | 1013.4 |
| 20260508020039 | 48 | 292 | 0.0 | 2.0 | 0.00 | 0.01 | 0.01 | 75 | 1013.6 |
| 20260508014538 | 49 | 292 | 0.0 | 2.0 | 0.00 | 0.01 | 0.01 | 74 | 1013.3 |
| 20260508013038 | 49 | 293 | 0.0 | 2.0 | 0.00 | 0.01 | 0.01 | 71 | 1013.4 |
| 20260508011546 | 50 | 293 | 0.0 | 2.0 | 0.00 | 0.01 | 0.01 | 68 | 1013.2 |
| 20260508010053 | 51 | 293 | 1.0 | 3.0 | 0.00 | 0.01 | 0.01 | 65 | 1013.3 |
| 20260508004536 | 52 | 291 | 5.0 | 9.0 | 0.00 | 0.01 | 0.01 | 63 | 1013.4 |
| 20260508003036 | 53 | 265 | 4.0 | 8.0 | 0.00 | 0.01 | 0.01 | 58 | 1013.5 |
| 20260508001535 | 54 | 295 | 6.0 | 12.0 | 0.00 | 0.01 | 0.01 | 55 | 1013.4 |
| 20260508000043 | 54 | 262 | 8.0 | 15.0 | 0.00 | 0.01 | 0.01 | 52 | 1013.5 |
| 20260507234534 | 55 | 284 | 8.0 | 14.0 | 0.00 | 0.01 | 0.01 | 51 | 1013.4 |
| 20260507233039 | 55 | 353 | 6.0 | 16.0 | 0.00 | 0.01 | 0.01 | 51 | 1013.5 |
| 20260507231532 | 56 | 253 | 2.0 | 7.0 | 0.00 | 0.01 | 0.01 | 49 | 1013.1 |
| 20260507230047 | 56 | 243 | 2.0 | 10.0 | 0.00 | 0.01 | 0.01 | 46 | 1013.1 |
| 20260507224535 | 57 | 253 | 3.0 | 13.0 | 0.00 | 0.01 | 0.01 | 48 | 1013.2 |
| 20260507223105 | 58 | 205 | 5.0 | 12.0 | 0.00 | 0.01 | 0.01 | 45 | 1013.2 |
| 20260507221531 | 56 | 218 | 3.0 | 9.0 | 0.00 | 0.01 | 0.01 | 49 | 1013.2 |